| time (UTC) | temp F | wind direction | speed knots | gust knots | rain 1hr in | rain 24hr in | rain mn in | humidity % | barometer mb |
| 20260831054103 | 73 | 77 | 5.2 | 7.8 | 0.00 | 0.00 | 0.00 | 53 | 1028.5 |
| 20260831053604 | 74 | 83 | 4.3 | 11.3 | 0.00 | 0.00 | 0.00 | 53 | 1028.7 |
| 20260831053105 | 74 | 72 | 3.5 | 10.4 | 0.00 | 0.00 | 0.00 | 53 | 1028.7 |
| 20260831052603 | 74 | 84 | 3.5 | 10.4 | 0.00 | 0.00 | 0.00 | 53 | 1028.8 |
| 20260831052104 | 74 | 66 | 2.6 | 8.7 | 0.00 | 0.00 | 0.00 | 52 | 1028.8 |
| 20260831051603 | 74 | 105 | 4.3 | 10.4 | 0.00 | 0.00 | 0.00 | 52 | 1028.7 |
| 20260831051103 | 74 | 82 | 5.2 | 10.4 | 0.00 | 0.00 | 0.00 | 52 | 1028.7 |
| 20260831050603 | 74 | 80 | 4.3 | 8.7 | 0.00 | 0.00 | 0.00 | 53 | 1028.7 |
| 20260831050103 | 74 | 80 | 4.3 | 8.7 | 0.00 | 0.00 | 0.00 | 53 | 1028.8 |
| 20260831045604 | 74 | 66 | 5.2 | 8.7 | 0.00 | 0.00 | 0.00 | 52 | 1028.8 |
| 20260831045103 | 74 | 80 | 4.3 | 7.8 | 0.00 | 0.00 | 0.00 | 52 | 1028.7 |
| 20260831044603 | 74 | 69 | 1.7 | 10.4 | 0.00 | 0.00 | 0.00 | 52 | 1028.8 |
| 20260831044104 | 75 | 65 | 1.7 | 8.7 | 0.00 | 0.00 | 0.00 | 52 | 1028.9 |
| 20260831043603 | 75 | 86 | 5.2 | 10.4 | 0.00 | 0.00 | 0.00 | 51 | 1029.0 |
| 20260831043104 | 74 | 86 | 2.6 | 8.7 | 0.00 | 0.00 | 0.00 | 49 | 1029.0 |
| 20260831042603 | 74 | 68 | 4.3 | 8.7 | 0.00 | 0.00 | 0.00 | 48 | 1029.1 |
| 20260831042103 | 74 | 42 | 5.2 | 7.8 | 0.00 | 0.00 | 0.00 | 46 | 1029.1 |
| 20260831041603 | 74 | 78 | 1.7 | 6.1 | 0.00 | 0.00 | 0.00 | 46 | 1029.1 |
| 20260831041104 | 74 | 47 | 3.5 | 8.7 | 0.00 | 0.00 | 0.00 | 47 | 1029.1 |
| 20260831040604 | 74 | 71 | 3.5 | 7.0 | 0.00 | 0.00 | 0.00 | 47 | 1029.1 |
| 20260831040104 | 74 | 93 | 4.3 | 10.4 | 0.00 | 0.00 | 0.00 | 48 | 1029.1 |
| 20260831035604 | 74 | 50 | 4.3 | 7.0 | 0.00 | 0.00 | 0.00 | 48 | 1029.2 |
| 20260831035104 | 74 | 69 | 2.6 | 7.0 | 0.00 | 0.00 | 0.00 | 49 | 1029.2 |
| 20260831034603 | 74 | 107 | 1.7 | 7.8 | 0.00 | 0.00 | 0.00 | 48 | 1029.1 |
| 20260831034103 | 74 | 99 | 4.3 | 7.0 | 0.00 | 0.00 | 0.00 | 49 | 1029.3 |
| 20260831033604 | 73 | 23 | 2.6 | 7.0 | 0.00 | 0.00 | 0.00 | 50 | 1029.3 |
| 20260831033104 | 73 | 55 | 5.2 | 10.4 | 0.00 | 0.00 | 0.00 | 49 | 1029.4 |
| 20260831032603 | 73 | 49 | 4.3 | 7.8 | 0.00 | 0.00 | 0.00 | 49 | 1029.4 |
| 20260831032103 | 73 | 100 | 4.3 | 7.8 | 0.00 | 0.00 | 0.00 | 50 | 1029.5 |
| 20260831031603 | 73 | 156 | 0.9 | 7.0 | 0.00 | 0.00 | 0.00 | 50 | 1029.5 |
| 20260831031103 | 73 | 79 | 3.5 | 8.7 | 0.00 | 0.00 | 0.00 | 50 | 1029.6 |
| 20260831030604 | 73 | 43 | 4.3 | 7.8 | 0.00 | 0.00 | 0.00 | 50 | 1029.6 |
| 20260831030104 | 73 | 77 | 2.6 | 6.1 | 0.00 | 0.00 | 0.00 | 50 | 1029.6 |
| 20260831025603 | 73 | 94 | 3.5 | 6.1 | 0.00 | 0.00 | 0.00 | 51 | 1029.7 |
| 20260831025103 | 72 | 80 | 0.0 | 2.6 | 0.00 | 0.00 | 0.00 | 51 | 1029.9 |
| 20260831024604 | 72 | 71 | 1.7 | 6.1 | 0.00 | 0.00 | 0.00 | 52 | 1030.1 |
| 20260831024103 | 72 | 84 | 2.6 | 5.2 | 0.00 | 0.00 | 0.00 | 51 | 1030.1 |
| 20260831023603 | 72 | 85 | 2.6 | 4.3 | 0.00 | 0.00 | 0.00 | 51 | 1030.1 |
| 20260831023104 | 72 | 91 | 1.7 | 6.1 | 0.00 | 0.00 | 0.00 | 51 | 1030.2 |
| 20260831022604 | 72 | 84 | 1.7 | 5.2 | 0.00 | 0.00 | 0.00 | 52 | 1030.3 |
| 20260831022103 | 72 | 33 | 3.5 | 6.1 | 0.00 | 0.00 | 0.00 | 52 | 1030.3 |
| 20260831021604 | 71 | 94 | 0.9 | 5.2 | 0.00 | 0.00 | 0.00 | 52 | 1030.5 |
| 20260831021103 | 71 | 76 | 2.6 | 6.1 | 0.00 | 0.00 | 0.00 | 51 | 1030.5 |
| 20260831020603 | 71 | 71 | 0.9 | 2.6 | 0.00 | 0.00 | 0.00 | 53 | 1030.5 |
| 20260831020103 | 71 | 16 | 1.7 | 4.3 | 0.00 | 0.00 | 0.00 | 51 | 1030.7 |
| 20260831015604 | 71 | 6 | 1.7 | 4.3 | 0.00 | 0.00 | 0.00 | 52 | 1030.8 |
| 20260831014604 | 70 | 9 | 1.7 | 5.2 | 0.00 | 0.00 | 0.00 | 55 | 1030.8 |
| 20260831014103 | 69 | 22 | 1.7 | 4.3 | 0.00 | 0.00 | 0.00 | 56 | 1031.0 |
| 20260831013603 | 69 | 23 | 4.3 | 6.1 | 0.00 | 0.00 | 0.00 | 57 | 1031.1 |
| 20260831013103 | 68 | 37 | 3.5 | 5.2 | 0.00 | 0.00 | 0.00 | 57 | 1031.2 |
| 20260831012603 | 69 | 42 | 0.9 | 2.6 | 0.00 | 0.00 | 0.00 | 56 | 1031.3 |
| 20260831012103 | 68 | 58 | 1.7 | 2.6 | 0.00 | 0.00 | 0.00 | 58 | 1031.4 |
| 20260831011603 | 70 | 277 | 0.0 | 2.6 | 0.00 | 0.00 | 0.00 | 55 | 1031.4 |
| 20260831011103 | 67 | 348 | 0.9 | 2.6 | 0.00 | 0.00 | 0.00 | 59 | 1031.5 |
| 20260831010604 | 67 | 48 | 0.9 | 4.3 | 0.00 | 0.00 | 0.00 | 60 | 1031.6 |
| 20260831010105 | 67 | 46 | 1.7 | 5.2 | 0.00 | 0.00 | 0.00 | 58 | 1031.8 |
| 20260831005603 | 69 | 41 | 0.0 | 2.6 | 0.00 | 0.00 | 0.00 | 59 | 1031.7 |
| 20260831005104 | 68 | 321 | 0.9 | 2.6 | 0.00 | 0.00 | 0.00 | 61 | 1031.8 |
| 20260831004604 | 66 | 26 | 0.9 | 2.6 | 0.00 | 0.00 | 0.00 | 63 | 1031.9 |
| 20260831004106 | 66 | 24 | 0.9 | 4.3 | 0.00 | 0.00 | 0.00 | 63 | 1032.0 |
| 20260831003104 | 65 | 355 | 0.9 | 4.3 | 0.00 | 0.00 | 0.00 | 64 | 1032.2 |
| 20260831002604 | 66 | 24 | 0.9 | 2.6 | 0.00 | 0.00 | 0.00 | 64 | 1032.2 |
| 20260831002104 | 65 | 330 | 1.7 | 2.6 | 0.00 | 0.00 | 0.00 | 65 | 1032.2 |
| 20260831001104 | 63 | 157 | 1.7 | 2.6 | 0.00 | 0.00 | 0.00 | 68 | 1032.1 |
| 20260831000604 | 62 | 141 | 0.0 | 0.9 | 0.00 | 0.00 | 0.00 | 69 | 1032.2 |
| 20260831000104 | 63 | 15 | 0.0 | 1.7 | 0.00 | 0.00 | 0.00 | 68 | 1032.1 |
| 20260830235604 | 62 | 352 | 0.9 | 2.6 | 0.00 | 0.00 | 0.00 | 70 | 1032.1 |
| 20260830235104 | 62 | 339 | 0.9 | 2.6 | 0.00 | 0.00 | 0.00 | 67 | 1032.2 |
| 20260830234604 | 62 | 301 | 0.9 | 1.7 | 0.00 | 0.00 | 0.00 | 68 | 1032.2 |
| 20260830233605 | 62 | 316 | 0.9 | 2.6 | 0.00 | 0.00 | 0.00 | 69 | 1032.2 |
| 20260830233104 | 62 | 308 | 0.9 | 2.6 | 0.00 | 0.00 | 0.00 | 67 | 1032.3 |
| 20260830232604 | 61 | 337 | 0.9 | 2.6 | 0.00 | 0.00 | 0.00 | 68 | 1032.3 |
| 20260830232105 | 61 | 324 | 2.6 | 2.6 | 0.00 | 0.00 | 0.00 | 68 | 1032.3 |
| 20260830231604 | 61 | 315 | 1.7 | 2.6 | 0.00 | 0.00 | 0.00 | 68 | 1032.3 |
| 20260830231105 | 60 | 303 | 1.7 | 2.6 | 0.00 | 0.00 | 0.00 | 69 | 1032.3 |
| 20260830230604 | 59 | 326 | 0.9 | 2.6 | 0.00 | 0.00 | 0.00 | 70 | 1032.3 |
| 20260830230105 | 59 | 336 | 1.7 | 4.3 | 0.00 | 0.00 | 0.00 | 71 | 1032.3 |
| 20260830225105 | 58 | 339 | 1.7 | 2.6 | 0.00 | 0.00 | 0.00 | 72 | 1032.1 |
| 20260830224604 | 57 | 8 | 0.9 | 2.6 | 0.00 | 0.00 | 0.00 | 74 | 1032.1 |
| 20260830224105 | 57 | 15 | 1.7 | 2.6 | 0.00 | 0.00 | 0.00 | 72 | 1032.1 |
| 20260830223104 | 57 | 350 | 0.9 | 2.6 | 0.00 | 0.00 | 0.00 | 73 | 1032.0 |
| 20260830222605 | 56 | 295 | 0.0 | 2.6 | 0.00 | 0.00 | 0.00 | 74 | 1032.0 |
| 20260830222104 | 56 | 307 | 0.0 | 2.6 | 0.00 | 0.00 | 0.00 | 75 | 1032.1 |
| 20260830221604 | 55 | 307 | 0.0 | 2.6 | 0.00 | 0.00 | 0.00 | 76 | 1032.1 |
| 20260830221104 | 55 | 300 | 1.7 | 2.6 | 0.00 | 0.00 | 0.00 | 76 | 1032.0 |
| 20260830220603 | 55 | 255 | 0.0 | 0.0 | 0.00 | 0.00 | 0.00 | 77 | 1032.0 |
| 20260830220105 | 54 | 255 | 0.0 | 0.0 | 0.00 | 0.00 | 0.00 | 79 | 1032.0 |
| 20260830215604 | 53 | 255 | 0.0 | 0.0 | 0.00 | 0.00 | 0.00 | 80 | 1032.0 |
| 20260830215105 | 53 | 255 | 0.0 | 1.7 | 0.00 | 0.00 | 0.00 | 81 | 1032.0 |
| 20260830214605 | 53 | 255 | 0.0 | 1.7 | 0.00 | 0.00 | 0.00 | 82 | 1031.9 |
| 20260830214104 | 52 | 255 | 0.0 | 0.9 | 0.00 | 0.00 | 0.00 | 83 | 1031.8 |
| 20260830213604 | 52 | 255 | 0.0 | 0.9 | 0.00 | 0.00 | 0.00 | 85 | 1031.9 |
| 20260830213105 | 52 | 255 | 0.0 | 1.7 | 0.00 | 0.00 | 0.00 | 86 | 1031.9 |
| 20260830212605 | 51 | 255 | 0.0 | 0.0 | 0.00 | 0.00 | 0.00 | 87 | 1031.9 |
| 20260830212104 | 50 | 255 | 0.0 | 0.0 | 0.00 | 0.00 | 0.00 | 88 | 1032.0 |
| 20260830211604 | 50 | 255 | 0.0 | 0.0 | 0.00 | 0.00 | 0.00 | 89 | 1031.9 |
| 20260830211103 | 49 | 255 | 0.0 | 0.0 | 0.00 | 0.00 | 0.00 | 90 | 1031.8 |
| 20260830210604 | 49 | 255 | 0.0 | 0.0 | 0.00 | 0.00 | 0.00 | 90 | 1031.8 |
| 20260830210104 | 48 | 255 | 0.0 | 0.0 | 0.00 | 0.00 | 0.00 | 90 | 1031.8 |
| 20260830205603 | 48 | 255 | 0.0 | 0.0 | 0.00 | 0.00 | 0.00 | 90 | 1031.7 |
| 20260830205103 | 48 | 255 | 0.0 | 0.0 | 0.00 | 0.00 | 0.00 | 90 | 1031.6 |
| 20260830204603 | 47 | 255 | 0.0 | 0.0 | 0.00 | 0.00 | 0.00 | 90 | 1031.5 |
| 20260830204103 | 47 | 255 | 0.0 | 0.0 | 0.00 | 0.00 | 0.00 | 90 | 1031.3 |
| 20260830203603 | 47 | 255 | 0.0 | 0.0 | 0.00 | 0.00 | 0.00 | 90 | 1031.4 |
| 20260830202603 | 47 | 255 | 0.9 | 1.7 | 0.00 | 0.00 | 0.00 | 90 | 1031.2 |
| 20260830202103 | 47 | 255 | 0.0 | 0.9 | 0.00 | 0.00 | 0.00 | 90 | 1031.1 |
| 20260830201603 | 47 | 255 | 0.9 | 1.7 | 0.00 | 0.00 | 0.00 | 90 | 1031.0 |
| 20260830201104 | 47 | 255 | 0.9 | 1.7 | 0.00 | 0.00 | 0.00 | 90 | 1031.1 |
| 20260830200604 | 46 | 255 | 0.9 | 2.6 | 0.00 | 0.00 | 0.00 | 89 | 1031.1 |
| 20260830200104 | 46 | 255 | 1.7 | 2.6 | 0.00 | 0.00 | 0.00 | 89 | 1031.1 |
| 20260830195604 | 47 | 255 | 0.0 | 0.0 | 0.00 | 0.00 | 0.00 | 89 | 1031.0 |
| 20260830195103 | 47 | 255 | 0.0 | 0.0 | 0.00 | 0.00 | 0.00 | 89 | 1031.0 |
| 20260830194603 | 47 | 255 | 0.0 | 1.7 | 0.00 | 0.00 | 0.00 | 89 | 1031.0 |
| 20260830193603 | 47 | 255 | 0.0 | 0.0 | 0.00 | 0.00 | 0.00 | 89 | 1030.9 |
| 20260830193103 | 47 | 255 | 0.0 | 0.0 | 0.00 | 0.00 | 0.00 | 89 | 1030.8 |
| 20260830192603 | 47 | 255 | 0.0 | 0.0 | 0.00 | 0.00 | 0.00 | 89 | 1030.9 |
| 20260830192103 | 47 | 255 | 0.0 | 1.7 | 0.00 | 0.00 | 0.00 | 89 | 1030.9 |
| 20260830191603 | 47 | 255 | 0.9 | 2.6 | 0.00 | 0.00 | 0.00 | 89 | 1030.8 |
| 20260830191104 | 47 | 255 | 0.0 | 0.9 | 0.00 | 0.00 | 0.00 | 89 | 1030.7 |
| 20260830190604 | 47 | 255 | 0.0 | 0.9 | 0.00 | 0.00 | 0.00 | 89 | 1030.7 |
| 20260830190103 | 47 | 255 | 0.0 | 2.6 | 0.00 | 0.00 | 0.00 | 89 | 1030.7 |
| 20260830185603 | 47 | 255 | 0.0 | 0.9 | 0.00 | 0.00 | 0.00 | 89 | 1030.7 |
| 20260830185104 | 47 | 255 | 0.0 | 0.0 | 0.00 | 0.00 | 0.00 | 89 | 1030.8 |
| 20260830184603 | 47 | 255 | 0.0 | 0.9 | 0.00 | 0.00 | 0.00 | 89 | 1030.7 |
| 20260830184103 | 47 | 255 | 0.0 | 0.9 | 0.00 | 0.00 | 0.00 | 89 | 1030.7 |
| 20260830183603 | 47 | 255 | 0.9 | 1.7 | 0.00 | 0.00 | 0.00 | 88 | 1030.8 |
| 20260830183103 | 47 | 255 | 0.0 | 1.7 | 0.00 | 0.00 | 0.00 | 88 | 1030.8 |
| 20260830182103 | 47 | 255 | 0.0 | 0.0 | 0.00 | 0.00 | 0.00 | 88 | 1030.8 |
| 20260830181603 | 47 | 255 | 0.0 | 0.9 | 0.00 | 0.00 | 0.00 | 88 | 1030.8 |
| 20260830181103 | 47 | 255 | 0.0 | 0.0 | 0.00 | 0.00 | 0.00 | 88 | 1030.8 |
| 20260830180604 | 47 | 255 | 0.0 | 0.0 | 0.00 | 0.00 | 0.00 | 88 | 1030.9 |
| 20260830175104 | 47 | 255 | 0.0 | 0.0 | 0.00 | 0.00 | 0.00 | 88 | 1030.9 |
| 20260830173604 | 47 | 255 | 0.0 | 0.0 | 0.00 | 0.00 | 0.00 | 87 | 1031.1 |
| 20260830173103 | 48 | 255 | 0.9 | 2.6 | 0.00 | 0.00 | 0.00 | 87 | 1031.0 |
| 20260830172603 | 48 | 255 | 1.7 | 2.6 | 0.00 | 0.00 | 0.00 | 87 | 1031.2 |
| 20260830172103 | 48 | 255 | 0.0 | 0.9 | 0.00 | 0.00 | 0.00 | 87 | 1031.1 |
| 20260830171604 | 48 | 255 | 0.0 | 1.7 | 0.00 | 0.00 | 0.00 | 87 | 1031.1 |
| 20260830171104 | 48 | 255 | 0.9 | 2.6 | 0.00 | 0.00 | 0.00 | 88 | 1031.1 |
| 20260830170604 | 48 | 255 | 0.0 | 1.7 | 0.00 | 0.00 | 0.00 | 87 | 1031.1 |
| 20260830170104 | 48 | 255 | 0.0 | 0.9 | 0.00 | 0.00 | 0.00 | 87 | 1031.0 |
| 20260830165604 | 48 | 255 | 0.9 | 2.6 | 0.00 | 0.00 | 0.00 | 87 | 1031.1 |
| 20260830165103 | 48 | 255 | 0.0 | 2.6 | 0.00 | 0.00 | 0.00 | 87 | 1031.1 |
| 20260830164604 | 48 | 255 | 0.0 | 0.9 | 0.00 | 0.00 | 0.00 | 87 | 1031.0 |
| 20260830163604 | 48 | 261 | 2.6 | 4.3 | 0.00 | 0.00 | 0.00 | 88 | 1031.3 |
| 20260830163104 | 48 | 262 | 3.5 | 5.2 | 0.00 | 0.00 | 0.00 | 88 | 1031.4 |
| 20260830162604 | 48 | 249 | 2.6 | 4.3 | 0.00 | 0.00 | 0.00 | 88 | 1031.4 |
| 20260830162103 | 48 | 248 | 2.6 | 5.2 | 0.00 | 0.00 | 0.00 | 88 | 1031.4 |
| 20260830161605 | 48 | 257 | 1.7 | 2.6 | 0.00 | 0.00 | 0.00 | 88 | 1031.3 |
| 20260830161104 | 48 | 257 | 1.7 | 4.3 | 0.00 | 0.00 | 0.00 | 88 | 1031.3 |
| 20260830160104 | 48 | 260 | 0.9 | 1.7 | 0.00 | 0.00 | 0.00 | 88 | 1031.4 |
| 20260830155604 | 48 | 260 | 0.9 | 1.7 | 0.00 | 0.00 | 0.00 | 87 | 1031.4 |
| 20260830155104 | 48 | 260 | 0.9 | 2.6 | 0.00 | 0.00 | 0.00 | 87 | 1031.4 |
| 20260830154603 | 48 | 249 | 2.6 | 4.3 | 0.00 | 0.00 | 0.00 | 87 | 1031.5 |
| 20260830154104 | 48 | 241 | 1.7 | 2.6 | 0.00 | 0.00 | 0.00 | 87 | 1031.5 |
| 20260830153604 | 48 | 241 | 0.9 | 1.7 | 0.00 | 0.00 | 0.00 | 87 | 1031.5 |
| 20260830153104 | 49 | 241 | 0.9 | 2.6 | 0.00 | 0.00 | 0.00 | 87 | 1031.5 |
| 20260830152604 | 49 | 241 | 2.6 | 2.6 | 0.00 | 0.00 | 0.00 | 87 | 1031.5 |
| 20260830152104 | 49 | 240 | 1.7 | 2.6 | 0.00 | 0.00 | 0.00 | 87 | 1031.4 |
| 20260830151604 | 49 | 240 | 1.7 | 2.6 | 0.00 | 0.00 | 0.00 | 86 | 1031.4 |
| 20260830151104 | 49 | 240 | 1.7 | 2.6 | 0.00 | 0.00 | 0.00 | 86 | 1031.4 |
| 20260830150604 | 50 | 240 | 1.7 | 2.6 | 0.00 | 0.00 | 0.00 | 86 | 1031.5 |
| 20260830150105 | 50 | 240 | 1.7 | 2.6 | 0.00 | 0.00 | 0.00 | 86 | 1031.5 |
| 20260830145604 | 50 | 240 | 1.7 | 2.6 | 0.00 | 0.00 | 0.00 | 86 | 1031.4 |
| 20260830145105 | 50 | 240 | 2.6 | 2.6 | 0.00 | 0.00 | 0.00 | 87 | 1031.5 |
| 20260830144104 | 50 | 257 | 1.7 | 2.6 | 0.00 | 0.00 | 0.00 | 87 | 1031.5 |
| 20260830143604 | 50 | 257 | 0.0 | 0.9 | 0.00 | 0.00 | 0.00 | 87 | 1031.5 |
| 20260830143104 | 50 | 257 | 0.0 | 0.0 | 0.00 | 0.00 | 0.00 | 87 | 1031.5 |
| 20260830142104 | 50 | 257 | 0.0 | 0.0 | 0.00 | 0.00 | 0.00 | 87 | 1031.5 |
| 20260830141604 | 50 | 257 | 0.0 | 0.0 | 0.00 | 0.00 | 0.00 | 86 | 1031.6 |
| 20260830141104 | 50 | 257 | 0.0 | 0.0 | 0.00 | 0.00 | 0.00 | 87 | 1031.5 |
| 20260830140604 | 50 | 257 | 0.0 | 0.0 | 0.00 | 0.00 | 0.00 | 86 | 1031.5 |
| 20260830140104 | 50 | 257 | 0.0 | 0.0 | 0.00 | 0.00 | 0.00 | 86 | 1031.5 |
| 20260830135604 | 51 | 257 | 0.0 | 0.0 | 0.00 | 0.00 | 0.00 | 86 | 1031.6 |
| 20260830135104 | 51 | 257 | 0.0 | 0.0 | 0.00 | 0.00 | 0.00 | 86 | 1031.6 |
| 20260830134604 | 51 | 257 | 0.0 | 0.9 | 0.00 | 0.00 | 0.00 | 86 | 1031.6 |
| 20260830134105 | 51 | 257 | 1.7 | 2.6 | 0.00 | 0.00 | 0.00 | 86 | 1031.6 |
| 20260830133604 | 51 | 257 | 0.9 | 2.6 | 0.00 | 0.00 | 0.00 | 86 | 1031.5 |
| 20260830133105 | 51 | 257 | 1.7 | 2.6 | 0.00 | 0.00 | 0.00 | 86 | 1031.5 |
| 20260830132604 | 51 | 257 | 0.9 | 2.6 | 0.00 | 0.00 | 0.00 | 86 | 1031.6 |
| 20260830132104 | 51 | 257 | 0.9 | 1.7 | 0.00 | 0.00 | 0.00 | 86 | 1031.6 |
| 20260830131604 | 51 | 257 | 0.0 | 0.9 | 0.00 | 0.00 | 0.00 | 85 | 1031.5 |
| 20260830131105 | 51 | 257 | 1.7 | 2.6 | 0.00 | 0.00 | 0.00 | 85 | 1031.5 |
| 20260830130604 | 51 | 257 | 1.7 | 2.6 | 0.00 | 0.00 | 0.00 | 85 | 1031.5 |
| 20260830130104 | 51 | 257 | 1.7 | 2.6 | 0.00 | 0.00 | 0.00 | 85 | 1031.6 |
| 20260830125604 | 51 | 257 | 2.6 | 2.6 | 0.00 | 0.00 | 0.00 | 84 | 1031.7 |
| 20260830125104 | 51 | 233 | 2.6 | 2.6 | 0.00 | 0.00 | 0.00 | 84 | 1031.7 |
| 20260830123604 | 52 | 145 | 2.6 | 4.3 | 0.00 | 0.00 | 0.00 | 83 | 1031.7 |
| 20260830123104 | 53 | 150 | 2.6 | 4.3 | 0.00 | 0.00 | 0.00 | 83 | 1031.6 |
| 20260830122604 | 53 | 235 | 1.7 | 2.6 | 0.00 | 0.00 | 0.00 | 83 | 1031.6 |
| 20260830122104 | 53 | 235 | 0.9 | 1.7 | 0.00 | 0.00 | 0.00 | 83 | 1031.4 |
| 20260830121603 | 53 | 235 | 1.7 | 2.6 | 0.00 | 0.00 | 0.00 | 83 | 1031.4 |
| 20260830121103 | 53 | 235 | 0.9 | 1.7 | 0.00 | 0.00 | 0.00 | 83 | 1031.4 |
| 20260830120602 | 53 | 235 | 0.9 | 2.6 | 0.00 | 0.00 | 0.00 | 83 | 1031.4 |
| 20260830115603 | 54 | 235 | 1.7 | 2.6 | 0.00 | 0.00 | 0.00 | 81 | 1031.4 |
| 20260830114603 | 55 | 235 | 1.7 | 2.6 | 0.00 | 0.00 | 0.00 | 80 | 1031.5 |
| 20260830114104 | 55 | 220 | 1.7 | 2.6 | 0.00 | 0.00 | 0.00 | 80 | 1031.4 |
| 20260830113603 | 55 | 220 | 1.7 | 2.6 | 0.00 | 0.00 | 0.00 | 80 | 1031.4 |
| 20260830113104 | 55 | 220 | 1.7 | 2.6 | 0.00 | 0.00 | 0.00 | 80 | 1031.4 |
| 20260830112603 | 55 | 220 | 1.7 | 2.6 | 0.00 | 0.00 | 0.00 | 80 | 1031.5 |
| 20260830111603 | 55 | 236 | 4.3 | 4.3 | 0.00 | 0.00 | 0.00 | 82 | 1031.4 |
| 20260830111103 | 55 | 224 | 1.7 | 2.6 | 0.00 | 0.00 | 0.00 | 82 | 1031.4 |
| 20260830110603 | 55 | 232 | 2.6 | 2.6 | 0.00 | 0.00 | 0.00 | 82 | 1031.5 |
| 20260830110103 | 55 | 276 | 1.7 | 2.6 | 0.00 | 0.00 | 0.00 | 82 | 1031.4 |
| 20260830104603 | 56 | 276 | 0.9 | 1.7 | 0.00 | 0.00 | 0.00 | 81 | 1031.1 |
| 20260830104104 | 56 | 276 | 1.7 | 2.6 | 0.00 | 0.00 | 0.00 | 81 | 1031.0 |
| 20260830103603 | 56 | 93 | 0.9 | 2.6 | 0.00 | 0.00 | 0.00 | 81 | 1031.1 |
| 20260830103104 | 56 | 93 | 0.9 | 1.7 | 0.00 | 0.00 | 0.00 | 80 | 1030.9 |
| 20260830102603 | 57 | 93 | 0.9 | 1.7 | 0.00 | 0.00 | 0.00 | 79 | 1031.0 |
| 20260830102103 | 57 | 93 | 0.9 | 1.7 | 0.00 | 0.00 | 0.00 | 79 | 1030.9 |
| 20260830101603 | 57 | 93 | 0.9 | 2.6 | 0.00 | 0.00 | 0.00 | 78 | 1030.8 |
| 20260830101103 | 57 | 93 | 0.9 | 2.6 | 0.00 | 0.00 | 0.00 | 77 | 1030.8 |
| 20260830100604 | 58 | 106 | 1.7 | 2.6 | 0.00 | 0.00 | 0.00 | 76 | 1030.8 |
| 20260830100104 | 58 | 126 | 3.5 | 5.2 | 0.00 | 0.00 | 0.00 | 75 | 1030.7 |
| 20260830095604 | 58 | 133 | 2.6 | 6.1 | 0.00 | 0.00 | 0.00 | 75 | 1030.7 |
| 20260830095103 | 59 | 135 | 2.6 | 5.2 | 0.00 | 0.00 | 0.00 | 74 | 1030.7 |
| 20260830094604 | 59 | 143 | 1.7 | 2.6 | 0.00 | 0.00 | 0.00 | 74 | 1030.7 |
| 20260830094104 | 59 | 143 | 1.7 | 2.6 | 0.00 | 0.00 | 0.00 | 73 | 1030.6 |
| 20260830093604 | 59 | 143 | 1.7 | 2.6 | 0.00 | 0.00 | 0.00 | 73 | 1030.6 |
| 20260830092603 | 60 | 143 | 1.7 | 5.2 | 0.00 | 0.00 | 0.00 | 73 | 1030.5 |
| 20260830092104 | 60 | 136 | 1.7 | 2.6 | 0.00 | 0.00 | 0.00 | 73 | 1030.6 |
| 20260830091604 | 60 | 138 | 1.7 | 5.2 | 0.00 | 0.00 | 0.00 | 73 | 1030.6 |
| 20260830091104 | 60 | 134 | 2.6 | 5.2 | 0.00 | 0.00 | 0.00 | 72 | 1030.6 |
| 20260830090604 | 61 | 142 | 2.6 | 5.2 | 0.00 | 0.00 | 0.00 | 72 | 1030.6 |
| 20260830090104 | 61 | 151 | 1.7 | 2.6 | 0.00 | 0.00 | 0.00 | 71 | 1030.5 |
| 20260830085604 | 61 | 151 | 0.9 | 1.7 | 0.00 | 0.00 | 0.00 | 71 | 1030.4 |
| 20260830085104 | 61 | 151 | 0.9 | 2.6 | 0.00 | 0.00 | 0.00 | 70 | 1030.3 |
| 20260830084604 | 62 | 151 | 0.9 | 1.7 | 0.00 | 0.00 | 0.00 | 69 | 1030.3 |
| 20260830084104 | 62 | 151 | 0.9 | 2.6 | 0.00 | 0.00 | 0.00 | 69 | 1030.2 |
| 20260830083604 | 62 | 151 | 1.7 | 2.6 | 0.00 | 0.00 | 0.00 | 68 | 1030.2 |
| 20260830083103 | 63 | 151 | 1.7 | 2.6 | 0.00 | 0.00 | 0.00 | 66 | 1030.1 |
| 20260830082603 | 63 | 151 | 1.7 | 2.6 | 0.00 | 0.00 | 0.00 | 65 | 1030.0 |
| 20260830082104 | 63 | 133 | 2.6 | 2.6 | 0.00 | 0.00 | 0.00 | 63 | 1030.0 |
| 20260830081104 | 64 | 126 | 1.7 | 5.2 | 0.00 | 0.00 | 0.00 | 59 | 1030.0 |
| 20260830080604 | 64 | 120 | 1.7 | 2.6 | 0.00 | 0.00 | 0.00 | 56 | 1029.8 |
| 20260830080104 | 65 | 120 | 1.7 | 2.6 | 0.00 | 0.00 | 0.00 | 55 | 1029.7 |
| 20260830075604 | 65 | 120 | 1.7 | 2.6 | 0.00 | 0.00 | 0.00 | 54 | 1029.6 |
| 20260830075104 | 65 | 120 | 1.7 | 2.6 | 0.00 | 0.00 | 0.00 | 54 | 1029.6 |
| 20260830074104 | 66 | 120 | 1.7 | 2.6 | 0.00 | 0.00 | 0.00 | 52 | 1029.5 |
| 20260830073603 | 66 | 120 | 1.7 | 2.6 | 0.00 | 0.00 | 0.00 | 52 | 1029.5 |
| 20260830073104 | 67 | 80 | 1.7 | 5.2 | 0.00 | 0.00 | 0.00 | 51 | 1029.4 |
| 20260830072604 | 67 | 83 | 3.5 | 7.8 | 0.00 | 0.00 | 0.00 | 50 | 1029.4 |
| 20260830072104 | 67 | 89 | 4.3 | 7.8 | 0.00 | 0.00 | 0.00 | 49 | 1029.3 |
| 20260830071604 | 67 | 89 | 3.5 | 7.0 | 0.00 | 0.00 | 0.00 | 48 | 1029.3 |
| 20260830071104 | 68 | 96 | 4.3 | 7.8 | 0.00 | 0.00 | 0.00 | 46 | 1029.2 |
| 20260830070603 | 68 | 92 | 3.5 | 7.0 | 0.00 | 0.00 | 0.00 | 47 | 1029.3 |
| 20260830070104 | 68 | 95 | 4.3 | 7.8 | 0.00 | 0.00 | 0.00 | 47 | 1029.2 |
| 20260830065604 | 68 | 78 | 4.3 | 8.7 | 0.00 | 0.00 | 0.00 | 46 | 1029.3 |
| 20260830065104 | 69 | 93 | 5.2 | 7.8 | 0.00 | 0.00 | 0.00 | 45 | 1029.3 |
| 20260830064604 | 69 | 93 | 5.2 | 10.4 | 0.00 | 0.00 | 0.00 | 46 | 1029.3 |
| 20260830064104 | 69 | 68 | 5.2 | 7.8 | 0.00 | 0.00 | 0.00 | 45 | 1029.3 |
| 20260830063104 | 69 | 97 | 4.3 | 7.8 | 0.00 | 0.00 | 0.00 | 45 | 1029.3 |
| 20260830062104 | 70 | 97 | 5.2 | 8.7 | 0.00 | 0.00 | 0.00 | 45 | 1029.2 |
| 20260830061105 | 70 | 90 | 6.1 | 10.4 | 0.00 | 0.00 | 0.00 | 45 | 1029.2 |
| 20260830060603 | 70 | 113 | 5.2 | 7.8 | 0.00 | 0.00 | 0.00 | 43 | 1029.2 |
| 20260830060105 | 70 | 86 | 5.2 | 8.7 | 0.00 | 0.00 | 0.00 | 44 | 1029.2 |
| 20260830055104 | 71 | 82 | 4.3 | 8.7 | 0.00 | 0.00 | 0.00 | 44 | 1029.3 |